This demonstration page uses our WeatherBlox Daily Observations layout. Learn more.

Left ArrowRight Arrow

Hourly Observations for May 11, 2022

Temp ( °F °C ) Dew Point ( °F °C ) Humidity (%) Winds ( mph kmh ) Pressure ( in mb ) Visibility ( mi km ) Precip ( " mm )
12:15 am 00:15 Cloudy 72 22.3 67 19.2 83 83 Calm 30.11 1020 10 16 0.00 0.00
12:35 am 00:35 Cloudy 73 22.7 67 19.3 81 81 Calm 30.11 1020 10 16 0.00 0.00
12:55 am 00:55 Cloudy 73 22.7 67 19.3 81 81 Calm 30.12 1020 10 16 0.00 0.00
1:15 am 01:15 Cloudy 73 22.9 67 19.2 80 80 Calm 30.12 1020 10 16 0.00 0.00
1:35 am 01:35 Cloudy 73 23 67 19.2 79 79 SE 6 9 30.13 1020 10 16 0.00 0.00
1:55 am 01:55 Cloudy 73 22.6 67 19.2 81 81 Calm 30.12 1020 10 16 0.00 0.00
2:15 am 02:15 Cloudy 73 22.7 66 19.1 80 80 Calm 30.13 1020 10 16 0.00 0.00
2:35 am 02:35 Cloudy 73 22.7 66 19.1 80 80 Calm 30.13 1020 10 16 0.00 0.00
2:55 am 02:55 Cloudy 73 22.6 66 19 80 80 Calm 30.12 1020 10 16 0.00 0.00
3:15 am 03:15 Cloudy 73 22.5 66 19.1 81 81 Calm 30.12 1020 10 16 0.00 0.00
3:35 am 03:35 Cloudy 72 22.3 66 19 82 82 Calm 30.12 1020 10 16 0.00 0.00
3:55 am 03:55 Cloudy 72 22.3 66 19 82 82 Calm 30.12 1020 10 16 0.00 0.00
4:15 am 04:15 Cloudy 72 22.1 66 19 83 83 Calm 30.12 1020 10 16 0.00 0.00
4:35 am 04:35 Cloudy 72 22 66 19 83 83 Calm 30.13 1020 10 16 0.00 0.00
4:55 am 04:55 Cloudy 72 22 66 19 83 83 Calm 30.13 1020 10 16 0.00 0.00
5:15 am 05:15 Cloudy 71 21.6 66 19 85 85 Calm 30.13 1020 10 16 0.00 0.00
5:35 am 05:35 Cloudy 71 21.7 66 19 85 85 Calm 30.13 1020 10 16 0.00 0.00
5:55 am 05:55 Cloudy 71 21.6 66 19.1 86 86 Calm 30.13 1020 10 16 0.00 0.00
6:15 am 06:15 Cloudy 70 21.2 66 19.1 88 88 Calm 30.13 1020 10 16 0.00 0.00
6:35 am 06:35 Cloudy 70 21.3 66 19 87 87 Calm 30.13 1020 10 16 0.00 0.00
6:55 am 06:55 Cloudy 71 21.4 66 19 86 86 Calm 30.14 1021 10 16 0.00 0.00
7:15 am 07:15 Cloudy 71 21.5 67 19.2 87 87 Calm 30.15 1021 10 16 0.00 0.00
7:35 am 07:35 Cloudy 71 21.5 67 19.4 88 88 Calm 30.15 1021 10 16 0.00 0.00
7:55 am 07:55 Cloudy 71 21.6 67 19.5 88 88 Calm 30.16 1021 10 16 0.00 0.00
8:15 am 08:15 Cloudy 72 22.2 68 19.8 86 86 Calm 30.16 1021 10 16 0.00 0.00
8:35 am 08:35 Cloudy 73 23 68 19.8 82 82 Calm 30.17 1022 10 16 0.00 0.00
8:55 am 08:55 Cloudy 75 23.8 68 20.1 80 80 SW 7 11 30.16 1021 10 16 0.00 0.00
9:15 am 09:15 Partly Cloudy 76 24.5 69 20.3 78 78 SW 5 7 30.16 1021 10 16 0.00 0.00
9:35 am 09:35 Sunny 78 25.4 69 20.6 75 75 SW 8 13 30.15 1021 10 16 0.00 0.00
9:55 am 09:55 Sunny 79 26 69 20.7 73 73 SW 5 7 30.17 1022 10 16 0.00 0.00
10:15 am 10:15 Sunny 80 26.4 70 21.1 73 73 SW 5 7 30.15 1021 10 16 0.00 0.00
10:35 am 10:35 Sunny 81 27 69 20.8 69 69 SW 5 7 30.14 1021 10 16 0.00 0.00
10:55 am 10:55 Sunny 82 27.5 70 21.2 69 69 Calm 30.14 1021 10 16 0.00 0.00
11:15 am 11:15 Sunny 82 27.6 70 20.9 67 67 SSE 5 7 30.14 1021 10 16 0.00 0.00
11:35 am 11:35 Sunny 83 28.4 71 21.4 66 66 SSE 5 7 30.14 1021 10 16 0.00 0.00
11:55 am 11:55 Partly Cloudy 84 28.8 70 21.2 64 64 SSE 5 7 30.14 1021 10 16 0.00 0.00
12:15 pm 12:15 Mostly Cloudy 84 28.9 69 20.7 61 61 ESE 3 6 30.14 1021 10 16 0.00 0.00
12:35 pm 12:35 undefined 83 28.5 69 20.6 62 62 S 3 6 30.16 1021 10 16 0.00 0.00
12:55 pm 12:55 undefined 83 28.6 69 20.4 61 61 SE 5 7 30.16 1021 10 16 0.00 0.00
1:15 pm 13:15 undefined 85 29.3 69 20.6 59 59 S 6 9 30.14 1021 10 16 0.00 0.00
1:35 pm 13:35 undefined 84 29.1 67 19.7 57 57 Calm 30.15 1021 10 16 0.00 0.00
1:55 pm 13:55 undefined 85 29.5 67 19.3 54 54 SE 7 11 30.14 1020 10 16 0.00 0.00
2:15 pm 14:15 undefined 87 30.5 67 19.6 52 52 SE 9 15 30.13 1020 10 16 0.00 0.00
2:35 pm 14:35 undefined 87 30.8 68 19.8 52 52 SE 7 11 30.12 1020 10 16 0.00 0.00
2:55 pm 14:55 undefined 87 30.7 68 20 53 53 ESE 9 15 30.11 1020 10 16 0.00 0.00
3:15 pm 15:15 undefined 87 30.5 68 20.1 54 54 ESE 8 13 30.10 1019 10 16 0.00 0.00
3:35 pm 15:35 undefined 87 30.6 67 19.4 51 51 SSE 7 11 30.10 1019 10 16 0.00 0.00
3:55 pm 15:55 undefined 87 30.3 67 19.3 52 52 ESE 7 11 30.10 1019 10 16 0.00 0.00
4:15 pm 16:15 undefined 88 31.1 68 19.8 51 51 S 7 11 30.09 1019 10 16 0.00 0.00
4:35 pm 16:35 undefined 89 31.4 68 20.2 51 51 SE 10 17 30.09 1019 10 16 0.00 0.00
4:55 pm 16:55 undefined 87 30.3 67 19.6 53 53 Calm 30.09 1019 10 16 0.00 0.00
5:15 pm 17:15 undefined 88 31 69 20.3 53 53 E 10 17 30.09 1019 10 16 0.00 0.00
5:35 pm 17:35 undefined 87 30.7 67 19.7 52 52 ESE 9 15 30.08 1019 10 16 0.00 0.00
5:55 pm 17:55 undefined 87 30.6 66 19 50 50 SE 8 13 30.08 1019 10 16 0.00 0.00
6:15 pm 18:15 undefined 86 30.2 66 19 51 51 ESE 9 15 30.08 1019 10 16 0.00 0.00
6:35 pm 18:35 undefined 86 30 65 18.3 49 49 ESE 9 15 30.08 1019 10 16 0.00 0.00
6:55 pm 18:55 undefined 86 30 65 18.5 50 50 ESE 9 15 30.07 1018 10 16 0.00 0.00
7:15 pm 19:15 undefined 86 30 65 18.5 50 50 SE 7 11 30.06 1018 10 16 0.00 0.00
7:35 pm 19:35 undefined 85 29.5 65 18.6 52 52 ESE 7 11 30.08 1018 10 16 0.00 0.00
7:55 pm 19:55 undefined 84 28.9 66 19 55 55 ESE 8 13 30.08 1019 10 16 0.00 0.00
8:15 pm 20:15 undefined 82 27.9 66 19 58 58 ESE 6 9 30.08 1019 10 16 0.00 0.00
8:35 pm 20:35 undefined 81 27.1 67 19.2 62 62 SE 6 9 30.09 1019 10 16 0.00 0.00
8:55 pm 20:55 undefined 79 26.2 66 19.1 65 65 SE 5 7 30.10 1019 10 16 0.00 0.00
9:15 pm 21:15 undefined 77 24.9 66 19.1 70 70 Calm 30.10 1019 10 16 0.00 0.00
10:35 pm 22:35 undefined 72 22.4 66 19.1 82 82 Calm 30.12 1020 10 16 0.00 0.00
10:55 pm 22:55 undefined 71 21.7 67 19.3 86 86 Calm 30.12 1020 10 16 0.00 0.00
11:15 pm 23:15 undefined 72 22 66 18.8 82 82 SE 3 6 30.12 1020 10 16 0.00 0.00
11:35 pm 23:35 undefined 70 21.3 66 18.8 86 86 ESE 3 6 30.12 1020 10 16 0.00 0.00
11:55 pm 23:55 undefined 72 22.2 66 18.7 81 81 SE 6 9 30.11 1020 10 16 0.00 0.00

Powered by AerisWeather